Time,TemperatureF,DewpointF,PressureIn,WindDirection,WindDirectionDegrees,WindSpeedMPH,WindSpeedGustMPH,Humidity,HourlyPrecipIn,Conditions,Clouds,dailyrainin,SolarRadiationWatts/m^2,SoftwareType,DateUTC
2013-05-14 00:02:00,51.0,28.0,-100.00,SSW,195,5.0,14.0,41,0.00,,,0.00,1.000000,,2013-05-14 05:02:00,
2013-05-14 00:12:00,51.0,28.0,-100.00,SSW,195,5.0,14.0,41,0.00,,,0.00,1.000000,,2013-05-14 05:12:00,
2013-05-14 00:22:00,51.0,28.0,-100.00,SSW,195,5.0,14.0,41,0.00,,,0.00,1.000000,,2013-05-14 05:22:00,
2013-05-14 00:32:00,51.0,28.0,-100.00,SSW,195,5.0,14.0,41,0.00,,,0.00,1.000000,,2013-05-14 05:32:00,
2013-05-14 01:01:00,50.0,30.0,-100.00,South,170,5.0,12.0,46,0.00,,,0.00,1.000000,,2013-05-14 06:01:00,
2013-05-14 01:12:00,50.0,30.0,-100.00,South,170,5.0,12.0,46,0.00,,,0.00,1.000000,,2013-05-14 06:12:00,
2013-05-14 01:22:00,50.0,30.0,-100.00,South,170,5.0,12.0,46,0.00,,,0.00,1.000000,,2013-05-14 06:22:00,
2013-05-14 01:32:00,50.0,30.0,-100.00,South,170,5.0,12.0,46,0.00,,,0.00,1.000000,,2013-05-14 06:32:00,
2013-05-14 02:02:00,49.0,31.0,-100.00,South,187,5.0,15.0,49,0.00,,,0.00,1.000000,,2013-05-14 07:02:00,
2013-05-14 02:11:00,49.0,31.0,-100.00,South,187,5.0,15.0,49,0.00,,,0.00,1.000000,,2013-05-14 07:11:00,
2013-05-14 02:21:00,49.0,31.0,-100.00,South,187,5.0,15.0,49,0.00,,,0.00,1.000000,,2013-05-14 07:21:00,
2013-05-14 02:31:00,49.0,31.0,-100.00,South,187,5.0,15.0,49,0.00,,,0.00,1.000000,,2013-05-14 07:31:00,
2013-05-14 03:02:00,48.0,32.0,-100.00,South,187,5.0,13.0,54,0.00,,,0.00,1.000000,,2013-05-14 08:02:00,
2013-05-14 03:11:00,48.0,32.0,-100.00,South,187,5.0,13.0,54,0.00,,,0.00,1.000000,,2013-05-14 08:11:00,
2013-05-14 03:21:00,48.0,32.0,-100.00,South,187,5.0,13.0,54,0.00,,,0.00,1.000000,,2013-05-14 08:21:00,
2013-05-14 03:31:00,48.0,32.0,-100.00,South,187,5.0,13.0,54,0.00,,,0.00,1.000000,,2013-05-14 08:31:00,
2013-05-14 04:02:00,47.0,33.0,-100.00,South,181,3.0,8.0,58,0.00,,,0.00,1.000000,,2013-05-14 09:02:00,
2013-05-14 04:11:00,47.0,33.0,-100.00,South,181,3.0,8.0,58,0.00,,,0.00,1.000000,,2013-05-14 09:11:00,
2013-05-14 04:22:00,47.0,33.0,-100.00,South,181,3.0,8.0,58,0.00,,,0.00,1.000000,,2013-05-14 09:22:00,
2013-05-14 04:32:00,47.0,33.0,-100.00,South,181,3.0,8.0,58,0.00,,,0.00,1.000000,,2013-05-14 09:32:00,
2013-05-14 05:04:00,44.0,33.0,-100.00,SSE,160,2.0,8.0,64,0.00,,,0.00,1.000000,,2013-05-14 10:04:00,
2013-05-14 05:14:00,44.0,33.0,-100.00,SSE,160,2.0,8.0,64,0.00,,,0.00,1.000000,,2013-05-14 10:14:00,
2013-05-14 05:25:00,44.0,33.0,-100.00,SSE,160,2.0,8.0,64,0.00,,,0.00,1.000000,,2013-05-14 10:25:00,
2013-05-14 05:33:00,44.0,33.0,-100.00,SSE,160,2.0,8.0,64,0.00,,,0.00,1.000000,,2013-05-14 10:33:00,
2013-05-14 06:02:00,43.0,33.0,-100.00,ESE,116,3.0,7.0,68,0.00,,,0.00,2.000000,,2013-05-14 11:02:00,
2013-05-14 06:11:00,43.0,33.0,-100.00,ESE,116,3.0,7.0,68,0.00,,,0.00,2.000000,,2013-05-14 11:11:00,
2013-05-14 06:22:00,43.0,33.0,-100.00,ESE,116,3.0,7.0,68,0.00,,,0.00,2.000000,,2013-05-14 11:22:00,
2013-05-14 06:32:00,43.0,33.0,-100.00,ESE,116,3.0,7.0,68,0.00,,,0.00,2.000000,,2013-05-14 11:32:00,
2013-05-14 07:03:00,44.0,33.0,-100.00,SSE,163,3.0,9.0,64,0.00,,,0.00,43.000000,,2013-05-14 12:03:00,
2013-05-14 07:12:00,44.0,33.0,-100.00,SSE,163,3.0,9.0,64,0.00,,,0.00,43.000000,,2013-05-14 12:12:00,
2013-05-14 07:21:00,44.0,33.0,-100.00,SSE,163,3.0,9.0,64,0.00,,,0.00,43.000000,,2013-05-14 12:21:00,
2013-05-14 07:32:00,44.0,33.0,-100.00,SSE,163,3.0,9.0,64,0.00,,,0.00,43.000000,,2013-05-14 12:32:00,
2013-05-14 08:01:00,48.0,34.0,-100.00,SSW,199,4.0,8.0,57,0.00,,,0.00,177.000000,,2013-05-14 13:01:00,
2013-05-14 08:11:00,48.0,34.0,-100.00,SSW,199,4.0,8.0,57,0.00,,,0.00,177.000000,,2013-05-14 13:11:00,
2013-05-14 08:22:00,48.0,34.0,-100.00,SSW,199,4.0,8.0,57,0.00,,,0.00,177.000000,,2013-05-14 13:22:00,
2013-05-14 08:32:00,48.0,34.0,-100.00,SSW,199,4.0,8.0,57,0.00,,,0.00,177.000000,,2013-05-14 13:32:00,
2013-05-14 09:01:00,54.0,36.0,-100.00,SSE,165,3.0,7.0,50,0.00,,,0.00,375.000000,,2013-05-14 14:01:00,
2013-05-14 09:11:00,54.0,36.0,-100.00,SSE,165,3.0,7.0,50,0.00,,,0.00,375.000000,,2013-05-14 14:11:00,
2013-05-14 09:22:00,54.0,36.0,-100.00,SSE,165,3.0,7.0,50,0.00,,,0.00,375.000000,,2013-05-14 14:22:00,
2013-05-14 09:31:00,54.0,36.0,-100.00,SSE,165,3.0,7.0,50,0.00,,,0.00,375.000000,,2013-05-14 14:31:00,
2013-05-14 10:01:00,59.0,38.0,-100.00,West,265,3.0,6.0,45,0.00,,,0.00,416.000000,,2013-05-14 15:01:00,
2013-05-14 10:12:00,59.0,38.0,-100.00,West,265,3.0,6.0,45,0.00,,,0.00,416.000000,,2013-05-14 15:12:00,
2013-05-14 10:22:00,59.0,38.0,-100.00,West,265,3.0,6.0,45,0.00,,,0.00,416.000000,,2013-05-14 15:22:00,
2013-05-14 10:33:00,59.0,38.0,-100.00,West,265,3.0,6.0,45,0.00,,,0.00,416.000000,,2013-05-14 15:33:00,
2013-05-14 11:02:00,59.0,38.0,-100.00,WNW,290,3.0,6.0,46,0.00,,,0.00,285.000000,,2013-05-14 16:02:00,
2013-05-14 11:12:00,59.0,38.0,-100.00,WNW,290,3.0,6.0,46,0.00,,,0.00,285.000000,,2013-05-14 16:12:00,
2013-05-14 11:23:00,59.0,38.0,-100.00,WNW,290,3.0,6.0,46,0.00,,,0.00,285.000000,,2013-05-14 16:23:00,
2013-05-14 11:33:00,59.0,38.0,-100.00,WNW,290,3.0,6.0,46,0.00,,,0.00,285.000000,,2013-05-14 16:33:00,
2013-05-14 12:03:00,60.0,39.0,-100.00,WNW,295,3.0,6.0,46,0.00,,,0.00,196.000000,,2013-05-14 17:03:00,
2013-05-14 12:13:00,60.0,39.0,-100.00,WNW,295,3.0,6.0,46,0.00,,,0.00,196.000000,,2013-05-14 17:13:00,
2013-05-14 12:24:00,60.0,39.0,-100.00,WNW,295,3.0,6.0,46,0.00,,,0.00,196.000000,,2013-05-14 17:24:00,
2013-05-14 12:32:00,60.0,39.0,-100.00,WNW,295,3.0,6.0,46,0.00,,,0.00,196.000000,,2013-05-14 17:32:00,
2013-05-14 13:02:00,59.0,41.0,-100.00,WSW,237,2.0,5.0,52,0.00,,,0.00,183.000000,,2013-05-14 18:02:00,
2013-05-14 13:12:00,59.0,41.0,-100.00,WSW,237,2.0,5.0,52,0.00,,,0.00,183.000000,,2013-05-14 18:12:00,
2013-05-14 13:22:00,59.0,41.0,-100.00,WSW,237,2.0,5.0,52,0.00,,,0.00,183.000000,,2013-05-14 18:22:00,
2013-05-14 13:32:00,59.0,41.0,-100.00,WSW,237,2.0,5.0,52,0.00,,,0.00,183.000000,,2013-05-14 18:32:00,
2013-05-14 14:01:00,63.0,45.0,-100.00,South,189,4.0,9.0,51,0.00,,,0.00,303.000000,,2013-05-14 19:01:00,
2013-05-14 14:12:00,63.0,45.0,-100.00,South,189,4.0,9.0,51,0.00,,,0.00,303.000000,,2013-05-14 19:12:00,
2013-05-14 14:22:00,63.0,45.0,-100.00,South,189,4.0,9.0,51,0.00,,,0.00,303.000000,,2013-05-14 19:22:00,
2013-05-14 14:32:00,63.0,45.0,-100.00,South,189,4.0,9.0,51,0.00,,,0.00,303.000000,,2013-05-14 19:32:00,
2013-05-14 15:02:00,68.0,44.0,-100.00,SSW,197,5.0,11.0,42,0.00,,,0.00,590.000000,,2013-05-14 20:02:00,
2013-05-14 15:11:00,68.0,44.0,-100.00,SSW,197,5.0,11.0,42,0.00,,,0.00,590.000000,,2013-05-14 20:11:00,
2013-05-14 15:23:00,68.0,44.0,-100.00,SSW,197,5.0,11.0,42,0.00,,,0.00,590.000000,,2013-05-14 20:23:00,
2013-05-14 15:32:00,68.0,44.0,-100.00,SSW,197,5.0,11.0,42,0.00,,,0.00,590.000000,,2013-05-14 20:32:00,
2013-05-14 16:03:00,72.0,44.0,-100.00,South,184,5.0,10.0,36,0.00,,,0.00,528.000000,,2013-05-14 21:03:00,
2013-05-14 16:12:00,72.0,44.0,-100.00,South,184,5.0,10.0,36,0.00,,,0.00,528.000000,,2013-05-14 21:12:00,
2013-05-14 16:23:00,72.0,44.0,-100.00,South,184,5.0,10.0,36,0.00,,,0.00,528.000000,,2013-05-14 21:23:00,
2013-05-14 16:33:00,72.0,44.0,-100.00,South,184,5.0,10.0,36,0.00,,,0.00,528.000000,,2013-05-14 21:33:00,
2013-05-14 17:03:00,75.0,41.0,-100.00,South,191,7.0,13.0,30,0.00,,,0.00,672.000000,,2013-05-14 22:03:00,
2013-05-14 17:13:00,75.0,41.0,-100.00,South,191,7.0,13.0,30,0.00,,,0.00,672.000000,,2013-05-14 22:13:00,
2013-05-14 17:24:00,75.0,41.0,-100.00,South,191,7.0,13.0,30,0.00,,,0.00,672.000000,,2013-05-14 22:24:00,
2013-05-14 17:34:00,75.0,41.0,-100.00,South,191,7.0,13.0,30,0.00,,,0.00,672.000000,,2013-05-14 22:34:00,
2013-05-14 18:03:00,76.0,42.0,-100.00,South,175,7.0,14.0,30,0.00,,,0.00,376.000000,,2013-05-14 23:03:00,
2013-05-14 18:12:00,76.0,42.0,-100.00,South,175,7.0,14.0,30,0.00,,,0.00,376.000000,,2013-05-14 23:12:00,
2013-05-14 18:21:00,76.0,42.0,-100.00,South,175,7.0,14.0,30,0.00,,,0.00,376.000000,,2013-05-14 23:21:00,
2013-05-14 18:32:00,76.0,42.0,-100.00,South,175,7.0,14.0,30,0.00,,,0.00,376.000000,,2013-05-14 23:32:00,
2013-05-14 19:02:00,77.0,43.0,-100.00,SSW,196,5.0,13.0,30,0.00,,,0.00,316.000000,,2013-05-15 00:02:00,
2013-05-14 19:11:00,77.0,43.0,-100.00,SSW,196,5.0,13.0,30,0.00,,,0.00,316.000000,,2013-05-15 00:11:00,
2013-05-14 19:21:00,77.0,43.0,-100.00,SSW,196,5.0,13.0,30,0.00,,,0.00,316.000000,,2013-05-15 00:21:00,
2013-05-14 19:32:00,77.0,43.0,-100.00,SSW,196,5.0,13.0,30,0.00,,,0.00,316.000000,,2013-05-15 00:32:00,
2013-05-14 20:01:00,74.0,43.0,-100.00,SSW,213,8.0,21.0,33,0.00,,,0.00,166.000000,,2013-05-15 01:01:00,
2013-05-14 20:11:00,74.0,43.0,-100.00,SSW,213,8.0,21.0,33,0.00,,,0.00,166.000000,,2013-05-15 01:11:00,
2013-05-14 20:21:00,74.0,43.0,-100.00,SSW,213,8.0,21.0,33,0.00,,,0.00,166.000000,,2013-05-15 01:21:00,
2013-05-14 20:31:00,74.0,43.0,-100.00,SSW,213,8.0,21.0,33,0.00,,,0.00,166.000000,,2013-05-15 01:31:00,
2013-05-14 21:02:00,68.0,43.0,-100.00,SSW,203,4.0,14.0,41,0.00,,,0.00,19.000000,,2013-05-15 02:02:00,
2013-05-14 21:11:00,68.0,43.0,-100.00,SSW,203,4.0,14.0,41,0.00,,,0.00,19.000000,,2013-05-15 02:11:00,
2013-05-14 21:21:00,68.0,43.0,-100.00,SSW,203,4.0,14.0,41,0.00,,,0.00,19.000000,,2013-05-15 02:21:00,
2013-05-14 21:31:00,68.0,43.0,-100.00,SSW,203,4.0,14.0,41,0.00,,,0.00,19.000000,,2013-05-15 02:31:00,
2013-05-14 22:01:00,65.0,44.0,-100.00,SSW,203,4.0,11.0,47,0.00,,,0.00,1.000000,,2013-05-15 03:01:00,
2013-05-14 22:12:00,65.0,44.0,-100.00,SSW,203,4.0,11.0,47,0.00,,,0.00,1.000000,,2013-05-15 03:12:00,
2013-05-14 22:22:00,65.0,44.0,-100.00,SSW,203,4.0,11.0,47,0.00,,,0.00,1.000000,,2013-05-15 03:22:00,
2013-05-14 22:33:00,65.0,44.0,-100.00,SSW,203,4.0,11.0,47,0.00,,,0.00,1.000000,,2013-05-15 03:33:00,
2013-05-14 23:03:00,64.0,47.0,-100.00,WNW,293,8.0,15.0,55,0.00,,,0.00,1.000000,,2013-05-15 04:03:00,
2013-05-14 23:12:00,64.0,47.0,-100.00,WNW,293,8.0,15.0,55,0.00,,,0.00,1.000000,,2013-05-15 04:12:00,
2013-05-14 23:24:00,64.0,47.0,-100.00,WNW,293,8.0,15.0,55,0.00,,,0.00,1.000000,,2013-05-15 04:24:00,
2013-05-14 23:33:00,64.0,47.0,-100.00,WNW,293,8.0,15.0,55,0.00,,,0.00,1.000000,,2013-05-15 04:33:00,